Regional Weather Roundup
Issued by NWS

Home | Current Version | Previous Version | Text Only | Print | Product List | Glossary On
Versions: 1 2 3 4 5 6 7 8 9 10 11 12 13 14 15 16 17 18 19 20 21 22 23 24 25 26 27 28 29 30 31 32 33 34 35 36 37 38 39 40 41 42 43 44 45 46 47 48 49 50
000
ASUS44 KOUN 060110
RWROK

WEATHER ROUNDUP FOR OKLAHOMA
NATIONAL WEATHER SERVICE NORMAN OK
800 PM CDT TUE MAY 05 2015

NOTE: "FAIR" INDICATES FEW OR NO CLOUDS BELOW 12,000 FEET WITH NO
      SIGNIFICANT WEATHER AND/OR OBSTRUCTIONS TO VISIBILITY.

OKZ001>007-009>012-014-015-017-060200-
NORTHWEST OKLAHOMA AND THE PANHANDLE

CITY           SKY/WX    TMP DP  RH WIND       PRES   REMARKS
GAGE           PTCLDY    63  59  87 S21G32    29.83S
GUYMON         TSTM      52  48  86 SE10      29.78F FOG
ENID/WOODRING  LGT RAIN  64  64 100 SE16      29.89S
$$

OKZ016-021>023-033>039-044-045-060200-
SOUTHWEST OKLAHOMA

CITY           SKY/WX    TMP DP  RH WIND       PRES   REMARKS
LAWTON/REGL    LGT RAIN  66  63  90 MISG      29.85F
LAWTON/FT SILL LGT RAIN  64  64 100 SE8       29.84F
FREDERICK      LGT RAIN  65  64  97 SE7       29.81F FOG
CLINTON        CLOUDY    64  62  93 SE10      29.87S
HOBART         CLOUDY    64  63  96 SE13      29.85S
ALTUS AFB      CLOUDY    65  65 100 SE9       29.83S
$$

OKZ018>020-024>031-060200-
CENTRAL OKLAHOMA

CITY           SKY/WX    TMP DP  RH WIND       PRES   REMARKS
OKLAHOMA CITY  LGT RAIN  66  63  88 E10       29.89F FOG
OKC/WILEY POST RAIN      66  64  93 E7        29.91S FOG
OKC/TINKER AFB RAIN      64  63  94 E5        29.90S FOG
STILLWATER     LGT RAIN  65  63  93 E6        29.93F FOG
GUTHRIE        RAIN      65  63  93 NE6       29.92S FOG
$$

OKZ008-013-054>072-060200-
NORTHEAST OKLAHOMA

CITY           SKY/WX    TMP DP  RH WIND       PRES   REMARKS
TULSA          CLOUDY    70  62  76 SE9       29.95R
TULSA/JONES    CLOUDY    71  63  75 SE9       29.95R
PONCA CITY     LGT RAIN  65  63  93 SE13      29.93F
BARTLESVILLE   CLOUDY    73  63  70 SE20G26   29.97R
MUSKOGEE       CLOUDY    69  67  93 SE3       29.98R
$$

OKZ032-040>043-046>053-073>077-060200-
SOUTH CENTRAL/SOUTHEAST OKLAHOMA

CITY           SKY/WX    TMP DP  RH WIND       PRES   REMARKS
ARDMORE/DWNTWN LGT RAIN  66  64  94 SE8       29.90F
MCALESTER      TSTM      66  63  90 S8        30.00R FOG
$$



USA.gov is the U.S. government's official web portal to all federal, state and local government web resources and services.